Погода в Вёшенской

Россия / Ростовская область     49°37′54″N   41°43′42″E
темп.,
°C
ветер,
м/с
пор.,
м/с
влажн.,
%
обл.,
%
осадки,
мм/ч
давл.,
гПа
погр.,
м
13 мая, чт
чт1300:00+10вюв227672 0.0 101817
03:00+11в4775100 0.0 1017124
06:00+11в498235 0.0 1017216
09:00+17вюв45625 0.0 1016541
12:00+21ююв34470 0.0 10151495
15:00+23ююв344716 0.0 10151827
18:00+21ююв356193 0.0 1015163
21:00+17вюв2270100 0.0 101612
14 мая, пт
пт1400:00+16в2271100 0.0 101619
03:00+15в337720 0.0 101643
06:00+15в48826 0.0 1016172
09:00+22вюв6105840 0.0 1015594
12:00+26юв6846100 0.0 10141169
15:00+26ююв7946100 0.0 10141343
18:00+25ююв485728 0.0 1013324
21:00+20вюв337031 0.0 101226
15 мая, сб
сб1500:00+18юв4127044 0.0 1013295
03:00+16юв49616 0.0 1013158
06:00+15юв4126315 0.0 1014299
09:00+21ю684693 0.0 1015577
12:00+25ююв6838100 0.0 1014973
15:00+26ю683799 0.1 10141472
18:00+25ю35515 0.1 1014172
21:00+19всв115912 0.1 101411
16 мая, вс
вс1600:00+17всв22615 0.0 101413
03:00+15всв226879 0.0 101414
06:00+16вюв3462100 0.0 101486
09:00+21юв5950100 0.0 1014410
12:00+26ююв5836100 0.0 10141114
15:00+28юв573298 0.0 10131698
18:00+26всв35506 0.0 1012113
21:00+20всв5105795 0.0 1012128
17 мая, пн
пн1700:00+18вюв41055100 0.0 1012161
03:00+17в3448100 0.0 101248
06:00+16в495870 0.0 1012158
09:00+22в61045100 0.0 1012401
12:00+27вюв81034100 0.0 10121009
15:00+29вюв71234100 0.0 10112303
18:00+25в41048100 0.0 1010217
21:00+20в5124995 0.0 1011183